Weather History for KCEF - December, 2013

Change the Weather History Date:

Tuesday, December 31, 2013

  Actual Average Record
Temperature  
Mean Temperature 17 °F -  
Max Temperature 25 °F 33 °F 46 °F (2003)
Min Temperature 9 °F 19 °F 5 °F (1996)
Degree Days  
Heating Degree Days 48    
Moisture  
Dew Point 9 °F    
Average Humidity 68    
Maximum Humidity 95    
Minimum Humidity 42    
Precipitation  
Precipitation 0.00 in - - ()
Sea Level Pressure  
Sea Level Pressure 30.13 in    
Wind  
Wind Speed 6 mph (WSW)    
Max Wind Speed 13 mph    
Max Gust Speed 23 mph    
Visibility 10 miles    
Events Snow    
Averages and records for this station are not official NWS values.
T = Trace of Precipitation, MM = Missing Value Source: NWS Daily Summary

Daily Weather History Graph

Daily Weather History Graph

Search for Another Location

Airport or City:

Trip Planner

Search our weather history database for the weather conditions in past years. The results will help you decide how hot, cold, wet, or windy it might be!

Date:

Astronomy

Dec. 31, 2013 Rise Set
Actual Time 7:18 AM EST 4:28 PM EST
Civil Twilight 6:47 AM EST 4:59 PM EST
Nautical Twilight 6:11 AM EST 5:34 PM EST
Astronomical Twilight 5:37 AM EST 6:09 PM EST
Moon 6:07 AM EST (12/31) 4:01 PM EST (12/31)
Length of Visible Light 10h 12m
Length of Day
9h 09m
Waning Crescent, 1% of the Moon is Illuminated
Dec 31
Waning Crescent
Jan 1
New
Jan 7
First Quarter
Jan 15
Full
Jan 24
Last Quarter

Hourly Weather History & Observations

Time (EST) Temp. Windchill Dew Point Humidity Pressure Visibility Wind Dir Wind Speed Gust Speed Precip Events Conditions
12:58 AM 12.7 °F -0.4 °F 3.7 °F 67% 30.18 in 10.0 mi NW 10.4 mph - N/A   Clear
1:58 AM 12.2 °F 4.3 °F 3.6 °F 68% 30.18 in 10.0 mi NNW 4.6 mph - N/A   Clear
2:58 AM 13.3 °F - 5.0 °F 70% 30.18 in 10.0 mi NNW 2.3 mph - N/A   Clear
3:58 AM 12.9 °F - 5.4 °F 72% 30.18 in 10.0 mi WNW 1.2 mph - N/A   Clear
4:58 AM 10.9 °F - 8.1 °F 88% 30.17 in 10.0 mi Calm Calm - N/A   Clear
5:58 AM 11.1 °F - 9.1 °F 92% 30.17 in 10.0 mi Calm Calm - N/A   Clear
6:58 AM 9.3 °F - 7.7 °F 93% 30.17 in 10.0 mi SW 2.3 mph - N/A   Clear
7:58 AM 9.1 °F - 8.1 °F 95% 30.17 in 10.0 mi Calm Calm - N/A   Clear
8:58 AM 13.3 °F - 9.5 °F 85% 30.17 in 10.0 mi North 1.2 mph - N/A   Clear
9:58 AM 16.3 °F 10.8 °F 5.4 °F 62% 30.15 in 10.0 mi SSW 3.5 mph - N/A   Clear
10:58 AM 19.4 °F 14.3 °F 4.5 °F 52% 30.12 in 10.0 mi Variable 3.5 mph - N/A   Partly Cloudy
11:58 AM 21.4 °F 13.8 °F 2.3 °F 44% 30.08 in 10.0 mi WSW 5.8 mph - N/A   Scattered Clouds
12:09 PM 21.2 °F 14.9 °F 1.4 °F 42% 30.05 in 10.0 mi SSW 4.6 mph - N/A   Mostly Cloudy
12:58 PM 22.1 °F 13.7 °F 6.4 °F 51% 30.06 in 10.0 mi Variable 6.9 mph - N/A   Overcast
1:04 PM 23.0 °F 13.9 °F 6.8 °F 50% 30.03 in 10.0 mi SSW 8.1 mph - N/A   Overcast
1:58 PM 24.1 °F 18.2 °F 8.4 °F 51% 30.04 in 10.0 mi South 4.6 mph - N/A   Partly Cloudy
2:58 PM 24.4 °F 14.9 °F 10.6 °F 56% 30.06 in 10.0 mi South 9.2 mph - N/A   Mostly Cloudy
3:58 PM 25.7 °F 17.1 °F 12.4 °F 57% 30.06 in 10.0 mi SW 8.1 mph - N/A   Overcast
4:58 PM 23.0 °F 13.9 °F 17.4 °F 79% 30.09 in 10.0 mi SSW 8.1 mph - N/A   Partly Cloudy
5:58 PM 20.5 °F 14.0 °F 16.2 °F 83% 30.09 in 10.0 mi South 4.6 mph - N/A   Partly Cloudy
6:58 PM 21.4 °F 11.1 °F 16.3 °F 81% 30.12 in 10.0 mi SW 9.2 mph - N/A   Scattered Clouds
7:58 PM 19.9 °F 10.1 °F 16.7 °F 87% 30.14 in 10.0 mi WSW 8.1 mph - N/A   Clear
8:36 PM 23.0 °F 15.8 °F 17.6 °F 80% 30.13 in 10.0 mi West 5.8 mph - N/A Snow Light Snow
8:53 PM 23.0 °F 11.7 °F 15.8 °F 74% 30.14 in 10.0 mi WNW 11.5 mph - N/A   Mostly Cloudy
8:58 PM 23.7 °F 12.1 °F 15.6 °F 71% 30.17 in 10.0 mi NW 12.7 mph - 0.00 in   Mostly Cloudy
9:58 PM 22.3 °F 13.9 °F 12.4 °F 66% 30.19 in 10.0 mi WNW 6.9 mph - N/A   Scattered Clouds
10:58 PM 22.5 °F 10.5 °F 6.1 °F 50% 30.21 in 10.0 mi West 12.7 mph - N/A   Partly Cloudy
11:58 PM 20.7 °F 8.2 °F 2.5 °F 45% 30.24 in 10.0 mi West 12.7 mph 23.0 mph N/A   Clear